Weather History for Akron, CO

Change the Weather History Date:

Thursday, November 3, 2011

  Actual Average Record
Temperature  
Mean Temperature 31 °F 44 °F  
Max Temperature 45 °F 56 °F 76 °F (1942)
Min Temperature 16 °F 31 °F 2 °F (1967)
Degree Days  
Heating Degree Days 34    
Month to date heating degree days 100  
Cooling Degree Days 0    
Month to date cooling degree days 0  
Moisture  
Dew Point 20 °F    
Average Humidity 65    
Maximum Humidity 85    
Minimum Humidity 45    
Precipitation  
Precipitation 0.00 in 0.02 in 0.34 in (1994)
Month to date precipitation 0.13 0.06  
Year to date precipitation 15.82  
Sea Level Pressure  
Sea Level Pressure 30.28 in    
Wind  
Wind Speed 12 mph (South)    
Max Wind Speed 23 mph    
Max Gust Speed 29 mph    
Visibility 10 miles    
Events      
T = Trace of Precipitation, MM = Missing Value Source: NWS Daily Summary

Daily Weather History Graph

Daily Weather History Graph

Search for Another Location

Airport:

Trip Planner

Search our weather history database for the weather conditions in past years. The results will help you decide how hot, cold, wet, or windy it might be!

Date:

Astronomy

Nov. 03, 2011 Rise Set
Actual Time 7:24 AM MDT 5:48 PM MDT
Civil Twilight 6:55 AM MDT 6:16 PM MDT
Nautical Twilight 6:23 AM MDT 6:48 PM MDT
Astronomical Twilight 5:52 AM MDT 7:20 PM MDT
Moon 2:13 PM MDT (11/3) 12:38 AM MDT (11/3)
Length of Visible Light 11h 20m
Length of Day
10h 23m
First Quarter, 61% of the Moon is Illuminated
Nov 3
First Quarter
Nov 10
Full
Nov 18
Last Quarter
Nov 24
New
Dec 2
First Quarter

Hourly Weather History & Observations

Time (MDT) Temp. Windchill Dew Point Humidity Pressure Visibility Wind Dir Wind Speed Gust Speed Precip Events Conditions
12:53 AM 17.1 °F 5.8 °F 12.9 °F 84% 30.52 in 10.0 mi SW 9.2 mph - N/A   Clear
1:53 AM 18.0 °F 3.1 °F 12.0 °F 78% 30.48 in 10.0 mi SW 16.1 mph - N/A   Clear
2:53 AM 17.1 °F 3.0 °F 10.9 °F 77% 30.47 in 10.0 mi SW 13.8 mph - N/A   Clear
4:53 AM 16.0 °F 1.7 °F 10.9 °F 81% 30.46 in 10.0 mi SW 13.8 mph - N/A   Clear
5:53 AM 18.0 °F 6.1 °F 12.0 °F 78% 30.45 in 10.0 mi SW 10.4 mph - N/A   Clear
6:53 AM 19.9 °F 7.9 °F 12.0 °F 71% 30.44 in 10.0 mi SW 11.5 mph - N/A   Clear
7:53 AM 21.9 °F 11.0 °F 9.0 °F 58% 30.43 in 10.0 mi SSW 10.4 mph - N/A   Clear
8:53 AM 25.0 °F 15.5 °F 14.0 °F 63% 30.43 in 10.0 mi SW 9.2 mph - N/A   Clear
9:53 AM 30.9 °F 23.5 °F 18.0 °F 59% 30.38 in 10.0 mi South 8.1 mph - N/A   Clear
10:53 AM 37.0 °F 29.8 °F 21.0 °F 52% 30.33 in 10.0 mi South 10.4 mph - N/A   Clear
12:53 PM 41.0 °F 33.5 °F 23.0 °F 49% 30.26 in 10.0 mi SSE 13.8 mph - N/A   Clear
1:53 PM 43.0 °F 36.8 °F 26.1 °F 51% 30.21 in 10.0 mi SSE 11.5 mph - N/A   Clear
2:53 PM 45.0 °F 37.1 °F 25.0 °F 46% 30.18 in 10.0 mi SSE 19.6 mph 25.3 mph N/A   Clear
3:53 PM 45.0 °F 37.1 °F 27.0 °F 49% 30.16 in 10.0 mi SSE 19.6 mph 25.3 mph N/A   Clear
5:53 PM 39.0 °F 30.6 °F 27.0 °F 62% 30.14 in 10.0 mi SSE 15.0 mph - N/A   Clear
6:53 PM 36.0 °F 26.0 °F 26.1 °F 67% 30.13 in 10.0 mi SSE 17.3 mph - N/A   Clear
7:53 PM 34.0 °F 24.2 °F 25.0 °F 70% 30.12 in 10.0 mi SSE 15.0 mph - N/A   Clear
8:53 PM 32.0 °F 22.1 °F 25.0 °F 75% 30.09 in 10.0 mi SSE 13.8 mph - N/A   Clear
9:53 PM 32.0 °F 23.0 °F 25.0 °F 75% 30.07 in 10.0 mi SSE 11.5 mph - N/A   Clear
10:53 PM 30.0 °F 22.4 °F 24.1 °F 79% 30.04 in 10.0 mi SSE 8.1 mph - N/A   Clear
11:53 PM 28.9 °F 21.1 °F 24.1 °F 82% 30.01 in 10.0 mi SSE 8.1 mph - N/A   Clear